Regional Weather Roundup
Issued by NWS Kansas City/Pleasant Hill, MO

Home | Current Version | Previous Version | Graphics & Text | Print | Product List | Glossary Off
Versions: 1 2 3 4 5 6 7 8 9 10 11 12 13 14 15 16 17 18 19 20 21 22 23 24 25 26 27 28 29 30 31 32 33 34 35 36 37 38 39 40 41 42 43 44 45 46 47 48 49 50

000
ASUS43 KEAX 020010
RWREAX

WEATHER ROUNDUP FOR EASTERN KANSAS AND NORTHWEST MISSOURI
NATIONAL WEATHER SERVICE KANSAS CITY/PLEASANT HILL MO
700 PM CDT WED OCT 01 2014

KSZ040-057-103>105-MOZ028-029-037-043-020100-
...KANSAS CITY METROPOLITAN AREA...

CITY           SKY/WX    TMP DP  RH WIND       PRES   REMARKS
K.C. INTL      CLOUDY    70  65  84 SE13      29.75R
6HR MIN TEMP:  70; 6HR MAX TEMP:  80;

K.C. DOWNTOWN  CLOUDY    69  66  90 E6        29.73F
6HR MIN TEMP:  69; 6HR MAX TEMP:  81; 6HR PCP:  0.39;

LEES SUMMIT    CLOUDY    69  67  93 E8        29.76F
6HR MIN TEMP:  68; 6HR MAX TEMP:  75; 6HR PCP:  0.52;

OLATHE - IXD   MOCLDY    70  67  90 E6        29.73S
6HR MIN TEMP:  70; 6HR MAX TEMP:  80;

OLATHE - OJC   MOCLDY    69  67  93 E6        29.73S
6HR MIN TEMP:  69; 6HR MAX TEMP:  80; 6HR PCP:  0.01;

LAWRENCE       MOCLDY    75  65  70 E6        29.71S

$$

MOZ001>008-011>017-020>025-030>033-038>040-044>046-053-054-020100-
...NORTHERN AND CENTRAL MISSOURI...

CITY           SKY/WX    TMP DP  RH WIND       PRES   REMARKS
ST. JOSEPH     PTCLDY    74  67  78 E7        29.73S
6HR MIN TEMP:  71; 6HR MAX TEMP:  79;

MOSBY          LGT RAIN  66  63  88 SE6       29.75F
WHITEMAN AFB   MOCLDY    66  63  90 S12       29.77F
6HR MIN TEMP:  64; 6HR MAX TEMP:  75; 6HR PCP:  1.86;

CLINTON        CLOUDY    68  68 100 E7        29.78F THUNDER FOG
SEDALIA        TSTM      66  63  90 S12       29.80F FOG
6HR MIN TEMP:  66; 6HR MAX TEMP:  81;

WARSAW         NOT AVBL
MARSHALL       RAIN      68  68 100 SE5       29.78F
CHILLICOTHE      N/A     70  66  87 E3        29.78R
6HR MIN TEMP:  65; 6HR MAX TEMP:  73; 6HR PCP:  0.06;

MOBERLY        CLOUDY    66  63  88 E8        29.79R
KIRKSVILLE     MOCLDY    66  66 100 E6        29.79F FOG
6HR MIN TEMP:  65; 6HR MAX TEMP:  68; 6HR PCP:  0.12;


$$

MOZ041-047>049-056>058-063>065-088>090-097-020100-
...EASTERN AND SOUTHERN MISSOURI...

CITY           SKY/WX    TMP DP  RH WIND       PRES   REMARKS
ST. LOUIS INTL CLOUDY    85  63  47 S13       29.80R
6HR MIN TEMP:  83; 6HR MAX TEMP:  88;

SPIRIT OF STL  CLOUDY    81  63  54 SE6       29.78S
COLUMBIA       LGT RAIN  67  66  97 NE12      29.79S FOG
HANNIBAL       MOCLDY    66  64  94 E6        29.83R
ROLLA          CLOUDY    80  63  55 S12       29.79R
LEBANON        CLOUDY    81  64  57 S7        29.81R
OSAGE BEACH    CLOUDY    75  63  64 NE6       29.78R
SPRINGFIELD    CLOUDY    78  65  63 S6        29.78R
BRANSON        PTCLDY    81  66  61 S7        29.82R
NEVADA         MOCLDY    79  66  65 S7        29.75R
JOPLIN         MOCLDY    78  68  71 S13       29.74F
WEST PLAINS    PTCLDY    77  66  68 SE5       29.85R

$$

IAZ060-094-KSZ022-034>040-054-083-096-NEZ052-066-093-020100-
...KANSAS...SOUTHEAST NEBRASKA AND IOWA...

CITY           SKY/WX    TMP DP  RH WIND       PRES   REMARKS
TOPEKA         MOCLDY    79  69  71 E7        29.69S
6HR MIN TEMP:  79; 6HR MAX TEMP:  86;

MANHATTAN      MOCLDY    72  60  66 NE8       29.69R
EMPORIA        PTCLDY    75  66  73 E7        29.67F
CHANUTE        CLEAR     76  68  76 SE8       29.69F
WICHITA        PTCLDY    87  60  40 S3        29.64F
OMAHA          MOCLDY    73  62  68 NE3       29.74R
LINCOLN        PTCLDY    73  61  65 E5        29.75R
FALLS CITY     CLEAR     75  65  70 E6        29.71S
LAMONI         CLEAR     68  65  90 SE3       29.77S
DES MOINES     CLOUDY    69  63  81 S5        29.77R

$$



USA.gov is the U.S. government's official web portal to all federal, state and local government web resources and services.